�������l�o���
Date,Time,MP-1(��Sv/h),MP-2(��Sv/h),MP-3(��Sv/h),MP-4(��Sv/h),MP-5(��Sv/h),MP-6(��Sv/h),MP-7(��Sv/h),MP-8(��Sv/h),����,����(m/s),���J
2018/01/11,00:00,0.883,1.472,0.927,1.752,1.180,0.490,0.876,0.843,�k�k��,6.0,��
2018/01/11,00:10,0.882,1.474,0.927,1.755,1.182,0.490,0.875,0.842,�k�k��,6.4,��
2018/01/11,00:20,0.882,1.474,0.927,1.753,1.179,0.491,0.877,0.842,�k�k��,6.1,��
2018/01/11,00:30,0.881,1.474,0.927,1.753,1.180,0.490,0.877,0.842,�k�k��,6.2,��
2018/01/11,00:40,0.885,1.473,0.925,1.752,1.178,0.489,0.877,0.841,�k,6.7,��
2018/01/11,00:50,0.884,1.474,0.927,1.752,1.181,0.490,0.876,0.841,�k,6.5,��
2018/01/11,01:00,0.882,1.473,0.925,1.753,1.180,0.490,0.876,0.842,�k�k��,4.8,��
2018/01/11,01:10,0.882,1.473,0.927,1.752,1.181,0.490,0.876,0.840,�k,5.3,��
2018/01/11,01:20,0.883,1.472,0.926,1.751,1.180,0.491,0.878,0.840,�k�k��,6.3,��
2018/01/11,01:30,0.883,1.473,0.928,1.752,1.178,0.490,0.877,0.842,�k��,4.9,��
2018/01/11,01:40,0.880,1.470,0.928,1.755,1.180,0.491,0.877,0.842,�k�k��,3.8,��
2018/01/11,01:50,0.883,1.473,0.928,1.752,1.179,0.489,0.875,0.839,�k�k��,3.2,��
2018/01/11,02:00,0.881,1.471,0.927,1.750,1.179,0.489,0.875,0.841,�k��,2.2,��
2018/01/11,02:10,0.882,1.475,0.928,1.752,1.180,0.490,0.876,0.840,�k��,2.5,��
2018/01/11,02:20,0.883,1.474,0.928,1.753,1.177,0.489,0.876,0.840,�k�k��,4.0,��
2018/01/11,02:30,0.883,1.471,0.929,1.753,1.177,0.490,0.876,0.840,�k�k��,4.3,��
2018/01/11,02:40,0.883,1.474,0.925,1.754,1.181,0.492,0.875,0.841,�k�k��,4.2,��
2018/01/11,02:50,0.882,1.471,0.928,1.750,1.179,0.490,0.877,0.841,�k�k��,4.9,��
2018/01/11,03:00,0.882,1.473,0.925,1.753,1.177,0.491,0.877,0.841,�k�k��,5.3,��
2018/01/11,03:10,0.881,1.473,0.925,1.754,1.180,0.490,0.874,0.842,�k�k��,5.3,��
2018/01/11,03:20,0.882,1.473,0.928,1.752,1.179,0.490,0.876,0.840,�k�k��,2.0,��
2018/01/11,03:30,0.883,1.471,0.927,1.755,1.178,0.491,0.876,0.842,���k��,0.9,��
2018/01/11,03:40,0.883,1.472,0.925,1.754,1.179,0.492,0.875,0.840,�k,2.3,��
2018/01/11,03:50,0.883,1.472,0.926,1.750,1.177,0.490,0.877,0.841,�k��,1.4,��
2018/01/11,04:00,0.881,1.472,0.926,1.752,1.176,0.489,0.877,0.843,-,CALM,��
2018/01/11,04:10,0.881,1.470,0.926,1.750,1.178,0.490,0.876,0.841,���k��,0.9,��
2018/01/11,04:20,0.884,1.473,0.925,1.754,1.181,0.490,0.875,0.841,��,3.0,��
2018/01/11,04:30,0.883,1.472,0.926,1.753,1.178,0.490,0.877,0.841,���쐼,2.6,��
2018/01/11,04:40,0.882,1.474,0.926,1.753,1.178,0.490,0.876,0.841,��,1.7,��
2018/01/11,04:50,0.882,1.472,0.926,1.752,1.179,0.491,0.876,0.839,���쐼,2.2,��
2018/01/11,05:00,0.882,1.471,0.927,1.754,1.177,0.490,0.874,0.841,��,2.9,��
2018/01/11,05:10,0.883,1.472,0.925,1.754,1.178,0.489,0.877,0.840,��,1.7,��
2018/01/11,05:20,0.882,1.472,0.926,1.752,1.179,0.492,0.875,0.841,���k��,6.6,��
2018/01/11,05:30,0.883,1.472,0.926,1.754,1.176,0.491,0.876,0.842,��,9.1,��
2018/01/11,05:40,0.882,1.473,0.927,1.752,1.178,0.491,0.876,0.841,��,9.2,��
2018/01/11,05:50,0.881,1.473,0.925,1.755,1.176,0.490,0.878,0.842,��,7.5,��
2018/01/11,06:00,0.880,1.472,0.924,1.753,1.179,0.491,0.876,0.842,��,6.7,��
2018/01/11,06:10,0.882,1.473,0.925,1.754,1.177,0.491,0.877,0.841,��,5.2,��
2018/01/11,06:20,0.881,1.473,0.923,1.754,1.179,0.490,0.877,0.840,��,6.6,��
2018/01/11,06:30,0.881,1.471,0.926,1.753,1.177,0.488,0.876,0.842,��,7.9,��
2018/01/11,06:40,0.881,1.473,0.924,1.750,1.176,0.490,0.877,0.842,��,7.6,��
2018/01/11,06:50,0.880,1.471,0.926,1.753,1.178,0.489,0.877,0.841,��,7.0,��
2018/01/11,07:00,0.880,1.471,0.924,1.751,1.178,0.489,0.877,0.840,���쐼,5.1,��
2018/01/11,07:10,0.881,1.472,0.925,1.752,1.175,0.488,0.875,0.842,���쐼,3.1,��
2018/01/11,07:20,0.881,1.471,0.926,1.754,1.173,0.489,0.876,0.842,��쐼,2.3,��
2018/01/11,07:30,0.880,1.473,0.927,1.753,1.177,0.491,0.877,0.841,�쐼,2.8,��
2018/01/11,07:40,0.880,1.471,0.927,1.750,1.177,0.490,0.876,0.843,��쐼,3.6,��
2018/01/11,07:50,0.878,1.470,0.927,1.755,1.179,0.491,0.876,0.841,�쐼,2.6,��
2018/01/11,08:00,0.881,1.473,0.925,1.753,1.178,0.490,0.878,0.841,��,3.4,��
2018/01/11,08:10,0.882,1.472,0.927,1.756,1.179,0.489,0.878,0.843,��,6.6,��
2018/01/11,08:20,0.882,1.470,0.926,1.756,1.179,0.490,0.878,0.839,��,6.2,��
2018/01/11,08:30,0.881,1.469,0.928,1.755,1.178,0.493,0.878,0.842,��,10.5,��
2018/01/11,08:40,0.883,1.473,0.929,1.756,1.178,0.490,0.876,0.843,���k��,9.7,��
2018/01/11,08:50,0.882,1.474,0.928,1.753,1.180,0.491,0.878,0.843,��,8.8,��
2018/01/11,09:00,0.884,1.470,0.928,1.755,1.178,0.492,0.878,0.841,��,9.2,��
2018/01/11,09:10,0.885,1.472,0.927,1.757,1.178,0.493,0.878,0.841,���k��,11.6,��
2018/01/11,09:20,0.886,1.470,0.928,1.757,1.178,0.491,0.879,0.842,��,9.8,��
2018/01/11,09:30,0.886,1.474,0.928,1.758,1.179,0.489,0.880,0.842,��,10.5,��
2018/01/11,09:40,0.886,1.476,0.929,1.755,1.178,0.491,0.878,0.843,��,10.2,��
2018/01/11,09:50,0.888,1.472,0.929,1.757,1.180,0.493,0.879,0.843,��,9.2,��
2018/01/11,10:00,0.886,1.474,0.922,1.756,1.182,0.492,0.879,0.842,��,9.5,��
2018/01/11,10:10,0.885,1.476,0.928,1.758,1.183,0.492,0.879,0.842,��,7.4,��
2018/01/11,10:20,0.886,1.477,0.929,1.759,1.182,0.494,0.879,0.843,���k��,8.6,��
2018/01/11,10:30,0.887,1.475,0.931,1.757,1.182,0.493,0.880,0.841,��,6.5,��
2018/01/11,10:40,0.887,1.474,0.931,1.760,1.181,0.492,0.877,0.844,���k��,7.9,��
2018/01/11,10:50,0.887,1.468,0.930,1.759,1.183,0.492,0.878,0.842,��,5.7,��
2018/01/11,11:00,0.887,1.470,0.931,1.757,1.183,0.494,0.876,0.842,��,4.5,��
2018/01/11,11:10,0.889,1.467,0.930,1.762,1.184,0.494,0.877,0.844,��,5.9,��
2018/01/11,11:20,0.888,1.470,0.930,1.761,1.185,0.494,0.878,0.844,���쐼,4.9,��
2018/01/11,11:30,0.888,1.471,0.931,1.760,1.184,0.492,0.879,0.845,��,7.0,��
2018/01/11,11:40,0.887,1.475,0.933,1.763,1.186,0.494,0.878,0.845,��,4.3,��
2018/01/11,11:50,0.888,1.476,0.932,1.763,1.188,0.493,0.879,0.843,��,9.8,��
2018/01/11,12:00,0.888,1.475,0.932,1.759,1.186,0.494,0.879,0.844,��,8.2,��
2018/01/11,12:10,0.889,1.476,0.929,1.760,1.188,0.493,0.881,0.843,��,6.6,��
2018/01/11,12:20,0.889,1.479,0.933,1.761,1.185,0.492,0.881,0.843,��,6.0,��
2018/01/11,12:30,0.890,1.477,0.933,1.762,1.187,0.494,0.879,0.845,��,4.8,��
2018/01/11,12:40,0.888,1.476,0.932,1.761,1.187,0.494,0.879,0.845,���k��,6.7,��
2018/01/11,12:50,0.889,1.476,0.932,1.761,1.187,0.494,0.881,0.844,��,4.7,��
2018/01/11,13:00,0.893,1.479,0.931,1.762,1.187,0.491,0.881,0.843,��,6.2,��
2018/01/11,13:10,0.892,1.473,0.932,1.763,1.186,0.494,0.879,0.844,��,4.0,��
2018/01/11,13:20,0.892,1.476,0.934,1.763,1.188,0.493,0.881,0.846,��,5.4,��
2018/01/11,13:30,0.890,1.473,0.934,1.766,1.189,0.494,0.880,0.844,��,5.0,��
2018/01/11,13:40,0.888,1.474,0.934,1.764,1.188,0.493,0.880,0.842,��,6.1,��
2018/01/11,13:50,0.887,1.471,0.933,1.763,1.186,0.494,0.880,0.843,��,5.3,��
2018/01/11,14:00,0.890,1.475,0.933,1.762,1.185,0.493,0.880,0.845,��,5.9,��
2018/01/11,14:10,0.890,1.475,0.934,1.764,1.187,0.494,0.881,0.843,��,6.1,��
2018/01/11,14:20,0.892,1.475,0.933,1.765,1.190,0.494,0.881,0.844,��,6.6,��
2018/01/11,14:30,0.894,1.475,0.935,1.766,1.188,0.495,0.880,0.844,��,4.2,��
2018/01/11,14:40,0.892,1.479,0.934,1.763,1.191,0.492,0.880,0.845,��,6.4,��
2018/01/11,14:50,0.891,1.479,0.932,1.763,1.189,0.494,0.880,0.844,��,8.1,��
2018/01/11,15:00,0.894,1.484,0.928,1.765,1.190,0.493,0.882,0.844,��,7.3,��
2018/01/11,15:10,0.891,1.486,0.933,1.761,1.189,0.492,0.880,0.843,��,5.4,��
2018/01/11,15:20,0.892,1.482,0.936,1.763,1.189,0.494,0.879,0.843,���k��,5.3,��
2018/01/11,15:30,0.891,1.476,0.934,1.764,1.188,0.493,0.879,0.844,��,6.8,��
2018/01/11,15:40,0.890,1.482,0.933,1.763,1.189,0.494,0.879,0.842,���k��,4.7,��
2018/01/11,15:50,0.888,1.484,0.931,1.764,1.188,0.494,0.881,0.841,�k�k��,4.2,��
2018/01/11,16:00,0.887,1.478,0.930,1.762,1.188,0.493,0.878,0.842,�k�k��,14.6,��
2018/01/11,16:10,0.885,1.481,0.931,1.760,1.188,0.493,0.879,0.840,�k�k��,11.9,��
2018/01/11,16:20,0.888,1.481,0.931,1.759,1.188,0.493,0.878,0.843,�k,11.6,��
2018/01/11,16:30,0.887,1.480,0.930,1.761,1.185,0.492,0.878,0.842,�k,10.4,��
2018/01/11,16:40,0.883,1.480,0.930,1.759,1.186,0.490,0.878,0.842,�k�k��,11.3,��
2018/01/11,16:50,0.884,1.479,0.927,1.760,1.187,0.490,0.877,0.841,�k�k��,10.5,��
2018/01/11,17:00,0.882,1.479,0.928,1.760,1.187,0.488,0.876,0.841,�k,11.3,��
2018/01/11,17:10,0.883,1.476,0.927,1.763,1.188,0.487,0.878,0.841,�k,10.8,��
2018/01/11,17:20,0.882,1.477,0.928,1.760,1.186,0.489,0.877,0.842,�k,8.8,��
2018/01/11,17:30,0.881,1.476,0.928,1.759,1.184,0.490,0.876,0.844,�k,6.8,��
2018/01/11,17:40,0.881,1.477,0.927,1.760,1.186,0.486,0.876,0.841,�k�k��,7.6,��
2018/01/11,17:50,0.882,1.478,0.927,1.759,1.187,0.489,0.877,0.841,�k,7.6,��
2018/01/11,18:00,0.881,1.480,0.925,1.757,1.189,0.490,0.875,0.841,�k�k��,7.5,��
2018/01/11,18:10,0.881,1.482,0.925,1.760,1.187,0.489,0.876,0.839,�k,7.2,��
2018/01/11,18:20,0.884,1.483,0.926,1.757,1.188,0.488,0.876,0.841,�k�k��,8.5,��
2018/01/11,18:30,0.886,1.481,0.925,1.757,1.188,0.489,0.877,0.841,�k�k��,7.7,��
2018/01/11,18:40,0.885,1.480,0.927,1.760,1.187,0.489,0.876,0.841,�k�k��,6.5,��
2018/01/11,18:50,0.886,1.479,0.926,1.758,1.186,0.489,0.876,0.839,�k�k��,7.2,��
2018/01/11,19:00,0.884,1.482,0.926,1.758,1.187,0.487,0.876,0.839,�k�k��,7.6,��
2018/01/11,19:10,0.885,1.481,0.927,1.755,1.186,0.489,0.876,0.841,�k�k��,6.9,��
2018/01/11,19:20,0.885,1.479,0.926,1.760,1.185,0.489,0.877,0.840,�k�k��,6.2,��
2018/01/11,19:30,0.884,1.480,0.927,1.760,1.185,0.490,0.875,0.841,�k�k��,5.3,��
2018/01/11,19:40,0.884,1.480,0.928,1.758,1.185,0.491,0.876,0.842,�k�k��,5.8,��
2018/01/11,19:50,0.883,1.478,0.927,1.757,1.186,0.489,0.875,0.839,�k�k��,6.5,��
2018/01/11,20:00,0.883,1.478,0.929,1.758,1.184,0.489,0.877,0.842,�k�k��,7.7,��
2018/01/11,20:10,0.885,1.479,0.929,1.757,1.186,0.489,0.875,0.840,�k,6.9,��
2018/01/11,20:20,0.882,1.480,0.926,1.758,1.185,0.488,0.876,0.840,�k�k��,7.0,��
2018/01/11,20:30,0.883,1.479,0.927,1.759,1.187,0.490,0.875,0.841,�k,5.9,��
2018/01/11,20:40,0.884,1.478,0.927,1.757,1.185,0.487,0.875,0.839,�k�k��,4.5,��
2018/01/11,20:50,0.884,1.476,0.928,1.756,1.186,0.489,0.877,0.839,�k,7.2,��
2018/01/11,21:00,0.884,1.478,0.927,1.760,1.185,0.489,0.876,0.840,�k�k��,7.2,��
2018/01/11,21:10,0.885,1.480,0.926,1.754,1.182,0.490,0.874,0.841,�k�k��,7.9,��
2018/01/11,21:20,0.883,1.480,0.926,1.756,1.183,0.489,0.876,0.839,�k�k��,8.0,��
2018/01/11,21:30,0.884,1.477,0.927,1.757,1.185,0.488,0.874,0.841,�k�k��,7.9,��
2018/01/11,21:40,0.883,1.478,0.925,1.760,1.183,0.489,0.877,0.842,�k�k��,7.9,��
2018/01/11,21:50,0.884,1.479,0.927,1.758,1.182,0.488,0.876,0.840,�k�k��,7.3,��
2018/01/11,22:00,0.885,1.480,0.927,1.757,1.184,0.488,0.877,0.839,�k�k��,9.2,��
2018/01/11,22:10,0.885,1.477,0.928,1.758,1.185,0.486,0.876,0.838,�k�k��,8.8,��
2018/01/11,22:20,0.883,1.479,0.926,1.759,1.185,0.488,0.874,0.842,�k�k��,6.4,��
2018/01/11,22:30,0.882,1.476,0.925,1.756,1.181,0.488,0.876,0.839,�k�k��,6.4,��
2018/01/11,22:40,0.881,1.478,0.925,1.761,1.182,0.489,0.875,0.841,�k�k��,7.2,��
2018/01/11,22:50,0.883,1.480,0.924,1.760,1.185,0.489,0.877,0.840,�k�k��,6.8,��
2018/01/11,23:00,0.882,1.476,0.928,1.759,1.185,0.490,0.878,0.840,�k�k��,6.4,��
2018/01/11,23:10,0.884,1.479,0.928,1.758,1.184,0.489,0.878,0.841,�k�k��,6.4,��
2018/01/11,23:20,0.883,1.477,0.927,1.757,1.182,0.489,0.876,0.840,�k�k��,7.4,��
2018/01/11,23:30,0.882,1.478,0.929,1.755,1.184,0.489,0.878,0.841,�k�k��,7.6,��
2018/01/11,23:40,0.883,1.477,0.927,1.758,1.183,0.488,0.876,0.841,�k�k��,7.0,��
2018/01/11,23:50,0.882,1.477,0.923,1.758,1.182,0.489,0.875,0.840,�k�k��,7.7,��
